Year,Month,Day,Hour,Minute,Value (Times are PST for temperature in C)
2019,05,23,00,00,15.80
2019,05,23,00,01,15.80
2019,05,23,00,02,15.80
2019,05,23,00,03,15.70
2019,05,23,00,04,15.70
2019,05,23,00,05,15.70
2019,05,23,00,06,15.70
2019,05,23,00,07,15.70
2019,05,23,00,08,15.70
2019,05,23,00,09,15.70
2019,05,23,00,10,15.70
2019,05,23,00,11,15.70
2019,05,23,00,12,15.70
2019,05,23,00,13,15.70
2019,05,23,00,14,15.70
2019,05,23,00,15,15.70
2019,05,23,00,16,15.70
2019,05,23,00,17,15.70
2019,05,23,00,18,15.70
2019,05,23,00,19,15.60
2019,05,23,00,20,15.60
2019,05,23,00,21,15.60
2019,05,23,00,22,15.60
2019,05,23,00,23,15.60
2019,05,23,00,24,15.60
2019,05,23,00,25,15.60
2019,05,23,00,26,15.60
2019,05,23,00,27,15.60
2019,05,23,00,28,15.60
2019,05,23,00,29,15.60
2019,05,23,00,30,15.60
2019,05,23,00,31,15.60
2019,05,23,00,32,15.60
2019,05,23,00,33,15.60
2019,05,23,00,34,15.60
2019,05,23,00,35,15.60
2019,05,23,00,36,15.50
2019,05,23,00,37,15.50
2019,05,23,00,38,15.50
2019,05,23,00,39,15.40
2019,05,23,00,40,15.40
2019,05,23,00,41,15.40
2019,05,23,00,42,15.40
2019,05,23,00,43,15.30
2019,05,23,00,44,15.30
2019,05,23,00,45,15.30
2019,05,23,00,46,15.30
2019,05,23,00,47,15.30
2019,05,23,00,48,15.30
2019,05,23,00,49,15.30
2019,05,23,00,50,15.20
2019,05,23,00,51,15.20
2019,05,23,00,52,15.20
2019,05,23,00,53,15.10
2019,05,23,00,54,15.10
2019,05,23,00,55,15.10
2019,05,23,00,56,15.10
2019,05,23,00,57,15.10
2019,05,23,00,58,15.00
2019,05,23,00,59,15.00
2019,05,23,01,00,15.00
2019,05,23,01,01,14.90
2019,05,23,01,02,14.90
2019,05,23,01,03,14.90
2019,05,23,01,04,14.90
2019,05,23,01,05,14.90
2019,05,23,01,06,14.90
2019,05,23,01,07,14.90
2019,05,23,01,08,14.90
2019,05,23,01,09,14.90
2019,05,23,01,10,14.90
2019,05,23,01,11,14.90
2019,05,23,01,12,14.80
2019,05,23,01,13,14.80
2019,05,23,01,14,14.80
2019,05,23,01,15,14.80
2019,05,23,01,16,14.80
2019,05,23,01,17,14.80
2019,05,23,01,18,14.80
2019,05,23,01,19,14.80
2019,05,23,01,20,14.80
2019,05,23,01,21,14.80
2019,05,23,01,22,14.80
2019,05,23,01,23,14.90
2019,05,23,01,24,14.90
2019,05,23,01,25,14.90
2019,05,23,01,26,14.90
2019,05,23,01,27,14.90
2019,05,23,01,28,14.90
2019,05,23,01,29,14.90
2019,05,23,01,30,14.90
2019,05,23,01,31,14.90
2019,05,23,01,32,14.90
2019,05,23,01,33,14.90
2019,05,23,01,34,14.90
2019,05,23,01,35,14.90
2019,05,23,01,36,15.00
2019,05,23,01,37,15.00
2019,05,23,01,38,15.10
2019,05,23,01,39,15.10
2019,05,23,01,40,15.10
2019,05,23,01,41,15.10
2019,05,23,01,42,15.20
2019,05,23,01,43,15.20
2019,05,23,01,44,15.20
2019,05,23,01,45,15.20
2019,05,23,01,46,15.20
2019,05,23,01,47,15.20
2019,05,23,01,48,15.20
2019,05,23,01,49,15.20
2019,05,23,01,50,15.20
2019,05,23,01,51,15.20
2019,05,23,01,52,15.20
2019,05,23,01,53,15.20
2019,05,23,01,54,15.20
2019,05,23,01,55,15.20
2019,05,23,01,56,15.20
2019,05,23,01,57,15.20
2019,05,23,01,58,15.10
2019,05,23,01,59,15.10
2019,05,23,02,00,15.10
2019,05,23,02,01,15.10
2019,05,23,02,02,15.10
2019,05,23,02,03,15.00
2019,05,23,02,04,15.00
2019,05,23,02,05,15.00
2019,05,23,02,06,14.90
2019,05,23,02,07,14.90
2019,05,23,02,08,14.90
2019,05,23,02,09,14.80
2019,05,23,02,10,14.80
2019,05,23,02,11,14.80
2019,05,23,02,12,14.80
2019,05,23,02,13,14.80
2019,05,23,02,14,14.70
2019,05,23,02,15,14.70
2019,05,23,02,16,14.70
2019,05,23,02,17,14.70
2019,05,23,02,18,14.70
2019,05,23,02,19,14.60
2019,05,23,02,20,14.60
2019,05,23,02,21,14.60
2019,05,23,02,22,14.50
2019,05,23,02,23,14.50
2019,05,23,02,24,14.50
2019,05,23,02,25,14.40
2019,05,23,02,26,14.40
2019,05,23,02,27,14.40
2019,05,23,02,28,14.30
2019,05,23,02,29,14.30
2019,05,23,02,30,14.30
2019,05,23,02,31,14.30
2019,05,23,02,32,14.20
2019,05,23,02,33,14.20
2019,05,23,02,34,14.20
2019,05,23,02,35,14.20
2019,05,23,02,36,14.10
2019,05,23,02,37,14.10
2019,05,23,02,38,14.10
2019,05,23,02,39,14.00
2019,05,23,02,40,13.90
2019,05,23,02,41,13.90
2019,05,23,02,42,13.90
2019,05,23,02,43,13.80
2019,05,23,02,44,13.80
2019,05,23,02,45,13.80
2019,05,23,02,46,13.70
2019,05,23,02,47,13.70
2019,05,23,02,48,13.60
2019,05,23,02,49,13.60
2019,05,23,02,50,13.50
2019,05,23,02,51,13.40
2019,05,23,02,52,13.40
2019,05,23,02,53,13.40
2019,05,23,02,54,13.30
2019,05,23,02,55,13.30
2019,05,23,02,56,13.20
2019,05,23,02,57,13.20
2019,05,23,02,58,13.20
2019,05,23,02,59,13.20
2019,05,23,03,00,13.20
2019,05,23,03,01,13.10
2019,05,23,03,02,13.10
2019,05,23,03,03,13.10
2019,05,23,03,04,13.10
2019,05,23,03,05,13.00
2019,05,23,03,06,13.00
2019,05,23,03,07,13.00
2019,05,23,03,08,12.90
2019,05,23,03,09,12.90
2019,05,23,03,10,12.90
2019,05,23,03,11,12.90
2019,05,23,03,12,12.90
2019,05,23,03,13,12.80
2019,05,23,03,14,12.80
2019,05,23,03,15,12.80
2019,05,23,03,16,12.80
2019,05,23,03,17,12.80
2019,05,23,03,18,12.80
2019,05,23,03,19,12.80
2019,05,23,03,20,12.80
2019,05,23,03,21,12.80
2019,05,23,03,22,12.80
2019,05,23,03,23,12.80
2019,05,23,03,24,12.70
2019,05,23,03,25,12.70
2019,05,23,03,26,12.70
2019,05,23,03,27,12.70
2019,05,23,03,28,12.70
2019,05,23,03,29,12.60
2019,05,23,03,30,12.60
2019,05,23,03,31,12.60
2019,05,23,03,32,12.60
2019,05,23,03,33,12.60
2019,05,23,03,34,12.50
2019,05,23,03,35,12.50
2019,05,23,03,36,12.50
2019,05,23,03,37,12.50
2019,05,23,03,38,12.50
2019,05,23,03,39,12.40
2019,05,23,03,40,12.40
2019,05,23,03,41,12.40
2019,05,23,03,42,12.40
2019,05,23,03,43,12.40
2019,05,23,03,44,12.40
2019,05,23,03,45,12.30
2019,05,23,03,46,12.30
2019,05,23,03,47,12.30
2019,05,23,03,48,12.30
2019,05,23,03,49,12.30
2019,05,23,03,50,12.30
2019,05,23,03,51,12.20
2019,05,23,03,52,12.20
2019,05,23,03,53,12.20
2019,05,23,03,54,12.20
2019,05,23,03,55,12.20
2019,05,23,03,56,12.20
2019,05,23,03,57,12.10
2019,05,23,03,58,12.10
2019,05,23,03,59,12.10
2019,05,23,04,00,12.10
2019,05,23,04,01,12.10
2019,05,23,04,02,12.10
2019,05,23,04,03,12.10
2019,05,23,05,04,11.80
2019,05,23,05,05,11.80
2019,05,23,05,06,11.80
2019,05,23,05,07,11.80
2019,05,23,05,08,11.80
2019,05,23,05,09,11.80
2019,05,23,05,10,11.80
2019,05,23,05,11,11.70
2019,05,23,05,12,11.70
2019,05,23,05,13,11.70
2019,05,23,05,14,11.70
2019,05,23,05,15,11.70
2019,05,23,05,16,11.70
2019,05,23,05,17,11.70
2019,05,23,05,18,11.70
2019,05,23,05,19,11.70
2019,05,23,05,20,11.70
2019,05,23,05,21,11.70
2019,05,23,05,22,11.60
2019,05,23,05,23,11.60
2019,05,23,05,24,11.60
2019,05,23,05,25,11.60
2019,05,23,05,26,11.50
2019,05,23,05,27,11.50
2019,05,23,05,28,11.50
2019,05,23,05,29,11.50
2019,05,23,05,30,11.50
2019,05,23,05,31,11.50
2019,05,23,05,32,11.50
2019,05,23,05,33,11.50
2019,05,23,05,34,11.50
2019,05,23,05,35,11.50
2019,05,23,05,36,11.60
2019,05,23,05,37,11.60
2019,05,23,05,38,11.60
2019,05,23,05,39,11.60
2019,05,23,05,40,11.60
2019,05,23,05,41,11.70
2019,05,23,05,42,11.70
2019,05,23,05,43,11.70
2019,05,23,05,44,11.70
2019,05,23,05,45,11.70
2019,05,23,05,46,11.70
2019,05,23,05,47,11.70
2019,05,23,05,48,11.80
2019,05,23,05,49,11.80
2019,05,23,05,50,11.80
2019,05,23,05,51,11.80
2019,05,23,05,52,11.80
2019,05,23,05,53,11.70
2019,05,23,05,54,11.70
2019,05,23,05,55,11.70
2019,05,23,05,56,11.60
2019,05,23,05,57,11.60
2019,05,23,05,58,11.50
2019,05,23,05,59,11.50
2019,05,23,06,00,11.50
2019,05,23,06,01,11.40
2019,05,23,06,02,11.40
2019,05,23,06,03,11.40
2019,05,23,06,04,11.40
2019,05,23,06,05,11.40
2019,05,23,06,06,11.40
2019,05,23,06,07,11.40
2019,05,23,06,08,11.40
2019,05,23,06,09,11.40
2019,05,23,06,10,11.40
2019,05,23,06,11,11.40
2019,05,23,06,12,11.40
2019,05,23,06,13,11.40
2019,05,23,06,14,11.40
2019,05,23,06,15,11.40
2019,05,23,06,16,11.40
2019,05,23,06,17,11.40
2019,05,23,06,18,11.40
2019,05,23,06,19,11.40
2019,05,23,06,20,11.40
2019,05,23,06,21,11.40
2019,05,23,06,22,11.40
2019,05,23,06,23,11.40
2019,05,23,06,24,11.50
2019,05,23,06,25,11.50
2019,05,23,06,26,11.50
2019,05,23,06,27,11.50
2019,05,23,06,28,11.60
2019,05,23,06,29,11.60
2019,05,23,06,30,11.60
2019,05,23,06,31,11.60
2019,05,23,06,32,11.60
2019,05,23,06,33,11.70
2019,05,23,06,34,11.70
2019,05,23,06,35,11.70
2019,05,23,06,36,11.80
2019,05,23,06,37,11.80
2019,05,23,06,38,11.80
2019,05,23,06,39,11.90
2019,05,23,06,40,11.90
2019,05,23,06,41,11.90
2019,05,23,06,42,11.90
2019,05,23,06,43,11.90
2019,05,23,06,44,11.90
2019,05,23,06,45,11.90
2019,05,23,06,46,11.90
2019,05,23,06,47,11.90
2019,05,23,06,48,11.90
2019,05,23,06,49,11.90
2019,05,23,06,50,11.90
2019,05,23,06,51,11.90
2019,05,23,06,52,11.80
2019,05,23,06,53,11.90
2019,05,23,06,54,11.90
2019,05,23,06,55,11.90
2019,05,23,06,56,11.90
2019,05,23,06,57,12.00
2019,05,23,06,58,12.00
2019,05,23,06,59,12.10
2019,05,23,07,00,12.20
2019,05,23,07,01,12.20
2019,05,23,07,02,12.30
2019,05,23,07,03,12.30
2019,05,23,07,04,12.40
2019,05,23,07,05,12.50
2019,05,23,07,06,12.60
2019,05,23,07,07,12.60
2019,05,23,07,08,12.70
2019,05,23,07,09,12.80
2019,05,23,07,10,12.90
2019,05,23,07,11,13.00
2019,05,23,07,12,13.10
2019,05,23,07,13,13.20
2019,05,23,07,14,13.20
2019,05,23,07,15,13.30
2019,05,23,07,16,13.30
2019,05,23,07,17,13.40
2019,05,23,07,18,13.50
2019,05,23,07,19,13.50
2019,05,23,07,20,13.60
2019,05,23,07,21,13.60
2019,05,23,07,22,13.70
2019,05,23,07,23,13.80
2019,05,23,07,24,13.80
2019,05,23,07,25,13.90
2019,05,23,07,26,14.00
2019,05,23,07,27,14.10
2019,05,23,07,28,14.10
2019,05,23,07,29,14.20
2019,05,23,07,30,14.30
2019,05,23,07,31,14.40
2019,05,23,07,32,14.50
2019,05,23,07,33,14.60
2019,05,23,07,34,14.60
2019,05,23,07,35,14.70
2019,05,23,07,36,14.80
2019,05,23,07,37,14.90
2019,05,23,07,38,15.00
2019,05,23,07,39,15.10
2019,05,23,07,40,15.20
2019,05,23,07,41,15.30
2019,05,23,07,42,15.30
2019,05,23,07,43,15.40
2019,05,23,07,44,15.50
2019,05,23,07,45,15.60
2019,05,23,07,46,15.70
2019,05,23,07,47,15.80
2019,05,23,07,48,15.90
2019,05,23,07,49,16.00
2019,05,23,07,50,16.00
2019,05,23,07,51,16.10
2019,05,23,07,52,16.20
2019,05,23,07,53,16.20
2019,05,23,07,54,16.30
2019,05,23,07,55,16.40
2019,05,23,07,56,16.40
2019,05,23,07,57,16.50
2019,05,23,07,58,16.50
2019,05,23,07,59,16.60
2019,05,23,08,00,16.60
2019,05,23,08,01,16.70
2019,05,23,08,02,16.70
2019,05,23,08,03,16.70
2019,05,23,08,04,16.70
2019,05,23,08,05,16.70
2019,05,23,08,06,16.70
2019,05,23,08,07,16.70
2019,05,23,08,08,16.70
2019,05,23,08,09,16.80
2019,05,23,08,10,16.80
2019,05,23,08,11,17.10
2019,05,23,08,12,17.20
2019,05,23,08,13,17.20
2019,05,23,08,14,17.20
2019,05,23,08,15,17.20
2019,05,23,08,16,17.30
2019,05,23,08,17,17.30
2019,05,23,08,18,17.40
2019,05,23,08,19,17.40
2019,05,23,08,20,17.40
2019,05,23,08,21,17.50
2019,05,23,08,22,17.50
2019,05,23,08,23,17.60
2019,05,23,08,24,17.60
2019,05,23,08,25,17.70
2019,05,23,08,26,17.80
2019,05,23,08,27,17.80
2019,05,23,08,28,17.80
2019,05,23,08,29,17.70
2019,05,23,08,30,17.60
2019,05,23,08,31,17.60
2019,05,23,08,32,17.50
2019,05,23,08,33,17.40
2019,05,23,08,34,17.40
2019,05,23,08,35,17.40
2019,05,23,08,36,17.30
2019,05,23,08,37,17.30
2019,05,23,08,38,17.30
2019,05,23,08,39,17.30
2019,05,23,08,40,17.40
2019,05,23,08,41,17.40
2019,05,23,08,42,17.50
2019,05,23,08,43,17.50
2019,05,23,08,44,17.60
2019,05,23,08,45,17.60
2019,05,23,08,46,17.70
2019,05,23,08,47,17.80
2019,05,23,08,48,17.80
2019,05,23,08,49,17.80
2019,05,23,08,50,17.90
2019,05,23,08,51,17.80
2019,05,23,08,52,17.80
2019,05,23,08,53,17.80
2019,05,23,08,54,17.80
2019,05,23,08,55,17.80
2019,05,23,08,56,17.80
2019,05,23,08,57,17.90
2019,05,23,08,58,17.90
2019,05,23,08,59,18.00
2019,05,23,09,00,18.10
2019,05,23,09,01,18.10
2019,05,23,09,02,18.00
2019,05,23,09,03,18.00
2019,05,23,09,04,17.90
2019,05,23,09,05,17.90
2019,05,23,09,06,17.90
2019,05,23,09,07,17.90
2019,05,23,09,08,17.90
2019,05,23,09,09,18.00
2019,05,23,09,10,18.10
2019,05,23,09,11,18.20
2019,05,23,09,12,18.20
2019,05,23,09,13,18.30
2019,05,23,09,14,18.30
2019,05,23,09,15,18.40
2019,05,23,09,16,18.50
2019,05,23,09,17,18.60
2019,05,23,09,18,18.70
2019,05,23,09,19,18.80
2019,05,23,09,20,18.90
2019,05,23,09,21,18.90
2019,05,23,09,22,18.90
2019,05,23,09,23,18.80
2019,05,23,09,24,18.70
2019,05,23,09,25,18.60
2019,05,23,09,26,18.50
2019,05,23,09,27,18.40
2019,05,23,09,28,18.40
2019,05,23,09,29,18.40
2019,05,23,09,30,18.40
2019,05,23,09,31,18.40
2019,05,23,09,32,18.30
2019,05,23,09,33,18.30
2019,05,23,09,34,18.20
2019,05,23,09,35,18.20
2019,05,23,09,36,18.10
2019,05,23,09,37,18.10
2019,05,23,09,38,18.00
2019,05,23,09,39,17.90
2019,05,23,09,40,17.90
2019,05,23,09,41,17.90
2019,05,23,09,42,17.90
2019,05,23,09,43,17.90
2019,05,23,09,44,17.90
2019,05,23,09,45,17.90
2019,05,23,09,46,17.90
2019,05,23,09,47,17.80
2019,05,23,09,48,17.80
2019,05,23,09,49,17.70
2019,05,23,09,50,17.70
2019,05,23,09,51,17.60
2019,05,23,09,52,17.60
2019,05,23,09,53,17.60
2019,05,23,09,54,17.60
2019,05,23,09,55,17.60
2019,05,23,09,56,17.60
2019,05,23,09,57,17.70
2019,05,23,09,58,17.70
2019,05,23,09,59,17.70
2019,05,23,10,00,17.80
2019,05,23,10,01,17.80
2019,05,23,10,02,18.00
2019,05,23,10,03,18.10
2019,05,23,10,04,18.20
2019,05,23,10,05,18.30
2019,05,23,10,06,18.40
2019,05,23,10,07,18.40
2019,05,23,10,08,18.50
2019,05,23,10,09,18.50
2019,05,23,10,10,18.60
2019,05,23,10,11,18.60
2019,05,23,10,12,18.70
2019,05,23,10,13,18.70
2019,05,23,10,14,18.70
2019,05,23,10,15,18.70
2019,05,23,10,16,18.70
2019,05,23,10,17,18.80
2019,05,23,10,18,18.80
2019,05,23,10,19,18.80
2019,05,23,10,20,18.80
2019,05,23,10,21,18.80
2019,05,23,10,22,18.90
2019,05,23,10,23,18.90
2019,05,23,10,24,19.00
2019,05,23,10,25,19.00
2019,05,23,10,26,18.90
2019,05,23,10,27,19.00
2019,05,23,10,28,19.00
2019,05,23,10,29,19.10
2019,05,23,10,30,19.10
2019,05,23,10,31,19.10
2019,05,23,10,32,19.00
2019,05,23,10,33,19.00
2019,05,23,10,34,19.00
2019,05,23,10,35,19.00
2019,05,23,10,36,19.10
2019,05,23,10,37,19.20
2019,05,23,10,38,19.20
2019,05,23,10,39,19.20
2019,05,23,10,40,19.20
2019,05,23,10,41,19.10
2019,05,23,10,42,19.00
2019,05,23,10,43,18.90
2019,05,23,10,44,18.90
2019,05,23,10,45,18.90
2019,05,23,10,46,18.90
2019,05,23,10,47,18.90
2019,05,23,10,48,18.90
2019,05,23,10,49,18.90
2019,05,23,10,50,18.90
2019,05,23,10,51,18.90
2019,05,23,10,52,18.90
2019,05,23,10,53,18.90
2019,05,23,10,54,18.90
2019,05,23,10,55,18.80
2019,05,23,10,56,18.80
2019,05,23,10,57,18.80
2019,05,23,10,58,18.80
2019,05,23,10,59,18.90
2019,05,23,11,00,18.90
2019,05,23,11,01,18.80
2019,05,23,11,02,18.80
2019,05,23,11,03,18.80
2019,05,23,11,04,18.70
2019,05,23,11,05,18.70
2019,05,23,11,06,18.70
2019,05,23,11,07,18.70
2019,05,23,11,08,18.80
2019,05,23,11,09,18.80
2019,05,23,11,10,18.90
2019,05,23,11,11,19.00
2019,05,23,11,12,19.20
2019,05,23,11,13,19.30
2019,05,23,11,14,19.50
2019,05,23,11,15,19.60
2019,05,23,11,16,19.80
2019,05,23,11,17,19.80
2019,05,23,11,18,19.90
2019,05,23,11,19,19.90
2019,05,23,11,20,19.90
2019,05,23,11,21,19.90
2019,05,23,11,22,19.90
2019,05,23,11,23,19.90
2019,05,23,11,24,20.00
2019,05,23,11,25,20.10
2019,05,23,11,26,20.30
2019,05,23,11,27,20.40
2019,05,23,11,28,20.40
2019,05,23,11,29,20.50
2019,05,23,11,30,20.60
2019,05,23,11,31,20.70
2019,05,23,11,32,20.70
2019,05,23,11,33,20.70
2019,05,23,11,34,20.70
2019,05,23,11,35,20.70
2019,05,23,11,36,20.60
2019,05,23,11,37,20.60
2019,05,23,11,38,20.60
2019,05,23,11,39,20.70
2019,05,23,11,40,20.70
2019,05,23,11,41,20.80
2019,05,23,11,42,20.80
2019,05,23,11,43,20.80
2019,05,23,11,44,20.90
2019,05,23,11,45,21.00
2019,05,23,11,46,21.00
2019,05,23,11,47,21.10
2019,05,23,11,48,21.20
2019,05,23,11,49,21.20
2019,05,23,11,50,21.20
2019,05,23,11,51,21.20
2019,05,23,11,52,21.20
2019,05,23,11,53,21.20
2019,05,23,11,54,21.20
2019,05,23,11,55,21.20
2019,05,23,11,56,21.30
2019,05,23,11,57,21.30
2019,05,23,11,58,21.30
2019,05,23,11,59,21.30
2019,05,23,12,00,21.30
2019,05,23,12,01,21.40
2019,05,23,12,02,21.40
2019,05,23,12,03,21.50
2019,05,23,12,04,21.60
2019,05,23,12,05,21.70
2019,05,23,12,06,21.70
2019,05,23,12,07,21.60
2019,05,23,12,08,21.60
2019,05,23,12,09,21.60
2019,05,23,12,10,21.60
2019,05,23,12,11,21.70
2019,05,23,12,12,21.80
2019,05,23,12,13,21.80
2019,05,23,12,14,21.80
2019,05,23,12,15,21.90
2019,05,23,12,16,21.90
2019,05,23,12,17,21.90
2019,05,23,12,18,21.90
2019,05,23,12,19,21.90
2019,05,23,12,20,21.90
2019,05,23,12,21,21.80
2019,05,23,12,22,21.80
2019,05,23,12,23,21.80
2019,05,23,12,24,21.80
2019,05,23,12,25,21.90
2019,05,23,12,26,21.90
2019,05,23,12,27,21.90
2019,05,23,12,28,21.90
2019,05,23,12,29,22.00
2019,05,23,12,30,22.10
2019,05,23,12,31,22.10
2019,05,23,12,32,22.20
2019,05,23,12,33,22.20
2019,05,23,12,34,22.20
2019,05,23,12,35,22.20
2019,05,23,12,36,22.20
2019,05,23,12,37,22.20
2019,05,23,12,38,22.30
2019,05,23,12,39,22.40
2019,05,23,12,40,22.50
2019,05,23,12,41,22.60
2019,05,23,12,42,22.80
2019,05,23,12,43,22.80
2019,05,23,12,44,22.90
2019,05,23,12,45,22.90
2019,05,23,12,46,22.90
2019,05,23,12,47,22.90
2019,05,23,12,48,22.80
2019,05,23,12,49,22.70
2019,05,23,12,50,22.70
2019,05,23,12,51,22.70
2019,05,23,12,52,22.70
2019,05,23,12,53,22.70
2019,05,23,12,54,22.80
2019,05,23,12,55,22.80
2019,05,23,12,56,22.70
2019,05,23,12,57,22.60
2019,05,23,12,58,22.50
2019,05,23,12,59,22.40
2019,05,23,13,00,22.30
2019,05,23,13,01,22.30
2019,05,23,13,02,22.30
2019,05,23,13,03,22.40
2019,05,23,13,04,22.40
2019,05,23,13,05,22.50
2019,05,23,13,06,22.50
2019,05,23,13,07,22.50
2019,05,23,13,08,22.50
2019,05,23,13,09,22.60
2019,05,23,13,10,22.60
2019,05,23,13,11,22.70
2019,05,23,13,12,22.70
2019,05,23,13,13,22.70
2019,05,23,13,14,22.70
2019,05,23,13,15,22.70
2019,05,23,13,16,22.70
2019,05,23,13,17,22.70
2019,05,23,13,18,22.70
2019,05,23,13,19,22.70
2019,05,23,13,20,22.70
2019,05,23,13,21,22.70
2019,05,23,13,22,22.70
2019,05,23,13,23,22.80
2019,05,23,13,24,22.80
2019,05,23,13,25,22.90
2019,05,23,13,26,23.00
2019,05,23,13,27,23.10
2019,05,23,13,28,23.20
2019,05,23,13,29,23.20
2019,05,23,13,30,23.20
2019,05,23,13,31,23.10
2019,05,23,13,32,23.10
2019,05,23,13,33,23.10
2019,05,23,13,34,23.10
2019,05,23,13,35,23.10
2019,05,23,13,36,23.10
2019,05,23,13,37,23.10
2019,05,23,13,38,23.10
2019,05,23,13,39,23.10
2019,05,23,13,40,23.00
2019,05,23,13,41,23.00
2019,05,23,13,42,23.00
2019,05,23,13,43,23.00
2019,05,23,13,44,22.90
2019,05,23,13,45,22.90
2019,05,23,13,46,22.80
2019,05,23,13,47,22.80
2019,05,23,13,48,22.70
2019,05,23,13,49,22.60
2019,05,23,13,50,22.60
2019,05,23,13,51,22.60
2019,05,23,13,52,22.60
2019,05,23,13,53,22.60
2019,05,23,13,54,22.70
2019,05,23,13,55,22.80
2019,05,23,13,56,22.80
2019,05,23,13,57,22.90
2019,05,23,13,58,22.90
2019,05,23,13,59,22.90
2019,05,23,14,00,23.00
2019,05,23,14,01,23.00
2019,05,23,14,02,23.10
2019,05,23,14,03,23.10
2019,05,23,14,04,23.10
2019,05,23,14,05,23.10
2019,05,23,14,06,23.10
2019,05,23,14,07,23.20
2019,05,23,14,08,23.20
2019,05,23,14,09,23.20
2019,05,23,14,10,23.30
2019,05,23,14,11,23.20
2019,05,23,14,12,23.20
2019,05,23,14,13,23.20
2019,05,23,14,14,23.20
2019,05,23,14,15,23.20
2019,05,23,14,16,23.20
2019,05,23,14,17,23.20
2019,05,23,14,18,23.30
2019,05,23,14,19,23.30
2019,05,23,14,20,23.20
2019,05,23,14,21,23.20
2019,05,23,14,22,23.20
2019,05,23,14,23,23.20
2019,05,23,14,24,23.30
2019,05,23,14,25,23.30
2019,05,23,14,26,23.40
2019,05,23,14,27,23.40
2019,05,23,14,28,23.50
2019,05,23,14,29,23.50
2019,05,23,14,30,23.60
2019,05,23,14,31,23.60
2019,05,23,14,32,23.60
2019,05,23,14,33,23.60
2019,05,23,14,34,23.60
2019,05,23,14,35,23.60
2019,05,23,14,36,23.50
2019,05,23,14,37,23.40
2019,05,23,14,38,23.40
2019,05,23,14,39,23.40
2019,05,23,14,40,23.40
2019,05,23,14,41,23.40
2019,05,23,14,42,23.40
2019,05,23,14,43,23.40
2019,05,23,14,44,23.40
2019,05,23,14,45,23.40
2019,05,23,14,46,23.40
2019,05,23,14,47,23.40
2019,05,23,14,48,23.30
2019,05,23,14,49,23.30
2019,05,23,14,50,23.40
2019,05,23,14,51,23.40
2019,05,23,14,52,23.40
2019,05,23,14,53,23.40
2019,05,23,14,54,23.40
2019,05,23,14,55,23.30
2019,05,23,14,56,23.30
2019,05,23,14,57,23.20
2019,05,23,14,58,23.10
2019,05,23,14,59,23.00
2019,05,23,15,00,22.80
2019,05,23,15,01,22.70
2019,05,23,15,02,22.70
2019,05,23,15,03,22.60
2019,05,23,15,04,22.60
2019,05,23,15,05,22.60
2019,05,23,15,06,22.60
2019,05,23,15,07,22.60
2019,05,23,15,08,22.70
2019,05,23,15,09,22.70
2019,05,23,15,10,22.70
2019,05,23,15,11,22.70
2019,05,23,15,12,22.80
2019,05,23,15,13,22.80
2019,05,23,15,14,22.80
2019,05,23,15,15,22.80
2019,05,23,15,16,22.80
2019,05,23,15,17,22.90
2019,05,23,15,18,22.90
2019,05,23,15,19,23.00
2019,05,23,15,20,23.10
2019,05,23,15,21,23.10
2019,05,23,15,22,23.10
2019,05,23,15,23,23.10
2019,05,23,15,24,23.10
2019,05,23,15,25,23.10
2019,05,23,15,26,23.10
2019,05,23,15,27,23.10
2019,05,23,15,28,23.20
2019,05,23,15,29,23.20
2019,05,23,15,30,23.30
2019,05,23,15,31,23.30
2019,05,23,15,32,23.30
2019,05,23,15,33,23.30
2019,05,23,15,34,23.20
2019,05,23,15,35,23.20
2019,05,23,15,36,23.20
2019,05,23,15,37,23.20
2019,05,23,15,38,23.10
2019,05,23,15,39,23.00
2019,05,23,15,40,23.00
2019,05,23,15,41,23.00
2019,05,23,15,42,23.10
2019,05,23,15,43,23.10
2019,05,23,15,44,23.10
2019,05,23,15,45,23.10
2019,05,23,15,46,23.10
2019,05,23,15,47,23.20
2019,05,23,15,48,23.10
2019,05,23,15,49,23.00
2019,05,23,15,50,22.90
2019,05,23,15,51,22.90
2019,05,23,15,52,22.80
2019,05,23,15,53,22.80
2019,05,23,15,54,22.80
2019,05,23,15,55,22.80
2019,05,23,15,56,22.80
2019,05,23,15,57,22.70
2019,05,23,15,58,22.70
2019,05,23,15,59,22.70
2019,05,23,16,00,22.80
2019,05,23,16,01,22.90
2019,05,23,16,02,23.00
2019,05,23,16,03,23.00
2019,05,23,16,04,23.10
2019,05,23,16,05,23.20
2019,05,23,16,06,23.20
2019,05,23,16,07,23.20
2019,05,23,16,08,23.30
2019,05,23,16,09,23.40
2019,05,23,16,10,23.40
2019,05,23,16,11,23.40
2019,05,23,16,12,23.50
2019,05,23,16,13,23.50
2019,05,23,16,14,23.60
2019,05,23,16,15,23.70
2019,05,23,16,16,23.70
2019,05,23,16,17,23.80
2019,05,23,16,18,23.80
2019,05,23,16,19,23.90
2019,05,23,16,20,24.00
2019,05,23,16,21,24.10
2019,05,23,16,22,24.10
2019,05,23,16,23,24.10
2019,05,23,16,24,24.10
2019,05,23,16,25,24.10
2019,05,23,16,26,24.10
2019,05,23,16,27,24.20
2019,05,23,16,28,24.20
2019,05,23,16,29,24.20
2019,05,23,16,30,24.20
2019,05,23,16,31,24.20
2019,05,23,16,32,24.10
2019,05,23,16,33,24.10
2019,05,23,16,34,24.00
2019,05,23,16,35,24.00
2019,05,23,16,36,24.10
2019,05,23,16,37,24.10
2019,05,23,16,38,24.20
2019,05,23,16,39,24.30
2019,05,23,16,40,24.30
2019,05,23,16,41,24.40
2019,05,23,16,42,24.40
2019,05,23,16,43,24.40
2019,05,23,16,44,24.50
2019,05,23,16,45,24.50
2019,05,23,16,46,24.60
2019,05,23,16,47,24.70
2019,05,23,16,48,24.70
2019,05,23,16,49,24.70
2019,05,23,16,50,24.60
2019,05,23,16,51,24.60
2019,05,23,16,52,24.70
2019,05,23,16,53,24.70
2019,05,23,16,54,24.70
2019,05,23,16,55,24.70
2019,05,23,16,56,24.60
2019,05,23,16,57,24.50
2019,05,23,16,58,24.30
2019,05,23,16,59,24.20
2019,05,23,17,00,24.00
2019,05,23,17,01,23.80
2019,05,23,17,02,23.50
2019,05,23,17,03,23.20
2019,05,23,17,04,23.00
2019,05,23,17,05,22.70
2019,05,23,17,06,22.50
2019,05,23,17,07,22.40
2019,05,23,17,08,22.30
2019,05,23,17,09,22.20
2019,05,23,17,10,22.20
2019,05,23,17,11,22.20
2019,05,23,17,12,22.20
2019,05,23,17,13,22.20
2019,05,23,17,14,22.20
2019,05,23,17,15,22.30
2019,05,23,17,16,22.30
2019,05,23,17,17,22.30
2019,05,23,17,18,22.30
2019,05,23,17,19,22.30
2019,05,23,17,20,22.30
2019,05,23,17,21,22.30
2019,05,23,17,22,22.30
2019,05,23,17,23,22.20
2019,05,23,17,24,22.20
2019,05,23,17,25,22.10
2019,05,23,17,26,22.10
2019,05,23,17,27,22.00
2019,05,23,17,28,22.00
2019,05,23,17,29,22.00
2019,05,23,17,30,22.00
2019,05,23,17,31,21.90
2019,05,23,17,32,21.90
2019,05,23,17,33,22.00
2019,05,23,17,34,22.00
2019,05,23,17,35,22.00
2019,05,23,17,36,22.10
2019,05,23,17,37,22.20
2019,05,23,17,38,22.30
2019,05,23,17,39,22.40
2019,05,23,17,40,22.60
2019,05,23,17,41,22.70
2019,05,23,17,42,22.80
2019,05,23,17,43,22.90
2019,05,23,17,44,23.00
2019,05,23,17,45,23.20
2019,05,23,17,46,23.30
2019,05,23,17,47,23.40
2019,05,23,17,48,23.50
2019,05,23,17,49,23.60
2019,05,23,17,50,23.70
2019,05,23,17,51,23.80
2019,05,23,17,52,24.00
2019,05,23,17,53,24.10
2019,05,23,17,54,24.30
2019,05,23,17,55,24.40
2019,05,23,17,56,24.50
2019,05,23,17,57,24.70
2019,05,23,17,58,24.80
2019,05,23,17,59,24.90
2019,05,23,18,00,24.90
2019,05,23,18,01,24.90
2019,05,23,18,02,24.90
2019,05,23,18,03,24.80
2019,05,23,18,04,24.80
2019,05,23,18,05,24.80
2019,05,23,18,06,24.80
2019,05,23,18,07,24.90
2019,05,23,18,08,25.00
2019,05,23,18,09,25.00
2019,05,23,18,10,25.10
2019,05,23,18,11,25.10
2019,05,23,18,12,25.20
2019,05,23,18,13,25.20
2019,05,23,18,14,25.20
2019,05,23,18,15,25.20
2019,05,23,18,16,25.20
2019,05,23,18,17,25.20
2019,05,23,18,18,25.10
2019,05,23,18,19,25.00